OPS 4682 DEB, 17722

Orbit data source: Space-Track

OPS 4682 DEB, 17722 is space debris in LEO originally from a launch on Sat, 03 Apr 1965 UTC launched from the Air Force Western Test Range (AFWTR). Debris objects in space refer to the collection of defunct objects orbiting the Earth. Examples of debris include non-operational satellites, rocket bodies, and fragments generated from explosions, collisions, or faulty payload assembly.

Loading next visibility...
Identifier
17722, 1965-027W
Orbit
LEO
Country
Flag of USUS
Related business
Manufacturer
Unknown
Mission
Spacecraft
Bus & Motor
Unknown
Mass
Unknown
Launch date (UTC)
1965-04-03 (61 years ago)
Launch vehicle
Unknown
Launch site
Air Force Western Test Range (AFWTR)
Object type
Payload
Rocket body
Debris
Shape & HBR
Unknown shape, 0.1 m
Radar Cross Section
Small (<0.1 m²)

Expand to show TLE details & history
Last TLE update: 1 day ago

TLE from 1 day ago
0 OPS 4682 DEB
1 17722U 65027W   26035.32155075 -.00000272  00000-0 -94252-3 0  9991
2 17722  90.2378 351.4903 0002759 180.0840 334.5468 12.98945435927101
Epoch: 2026-02-04T07:43Z
TLE epoch observation values (Epoch: 2026-02-04T07:43:01.984Z)
Latitude
25.40954°
Longitude
-78.64537°
Altitude
1,267.393 km
Speed
7.225 km/s
True Right ascension
11h 26m 24s
True Declination
25° 17' 07"
Sunlit
Object was in full shadow at epoch
Visualization orbit readout
Latitude
Unknown
Longitude
Unknown
Altitude
Unknown
Speed
Unknown
Apparent Right ascension
Unknown
Apparent Declination
Unknown
Sunlit
N/A
Visualization observer readout
Local Sidereal Time
16:57:23
Azimuth
Unknown
Elevation
Unknown
Doppler factor
Unknown
Orbital elements
Apogee altitude
1,265.458 km
Perigee altitude
1,261.242 km
Semi-major axis
7,641.487 km
Eccentricity
0.00028
Inclination
90.2378°
RAAN
351.4903°
Arg. of periapsis
180.084°
True anomaly
334.53321°
Mean anomaly
334.5468°
Eccentric anomaly
334.54°
Mean motion
3.2492 °/min
Orbital period
110.8 mins
BSTAR
-0.00094252
Loading maneuver chart data...
Computing Atmospheric mass density...
Loading historical data...
Loading historical data...
Loading historical data...
Loading historical data...
Loading historical data...
Loading historical data...
Loading historical data...

Documentation

Showing up to 5 results
|